Погода в Павельце

Россия / Рязанская область     53°47′16″N   39°14′39″E
темп.,
°C
ветер,
м/с
пор.,
м/с
влажн.,
%
обл.,
%
осадки,
мм/ч
давл.,
гПа
погр.,
м
6 марта, сб
сб600:00−10сз238932 0.0 101521
03:00−12сз228816 0.0 101621
06:00−12зсз22897 0.0 101621
09:00−9ссз129554 0.1 101788
12:00−7ссз359298 0.2 1017356
15:00−6сз468966 0.2 1016518
18:00−9зсз349038 0.0 101646
21:00−11з459022 0.0 101785
7 марта, вс
вс700:00−13зюз44930 0.0 101773
03:00−13зюз48920 0.0 1015129
06:00−12юз6138823 0.0 1012267
09:00−8юз10188262 0.0 1008678
12:00−4юз111881100 0.1 10041029
15:00−3юз121992100 1.1 9991233
18:00−2зюз111988100 0.7 9971204
21:00−6з4793100 2.9 998220
8 марта, пн
пн800:00−8зюз489268 0.2 999147
03:00−8зюз6148845 0.2 1000389
06:00−9зюз6158619 0.0 998366
09:00−7зюз7139028 0.0 1000654
12:00−6зсз7107767 0.1 1001924
15:00−6зсз7108350 0.1 1003998
18:00−9з5118789 0.1 1006298
21:00−11зсз499549 0.1 1009183
9 марта, вт
вт900:00−12сз349676 0.1 101061
03:00−16сз459645 0.1 101280
06:00−18сз359719 0.0 101480
09:00−17ссз479517 0.0 1016231
12:00−14сз359162 0.0 1017339
15:00−12сз468766 0.0 1018515
18:00−15зсз239494 0.0 101820
21:00−15сз239694 0.1 102128
10 марта, ср
ср1000:00−17ссз349599 0.0 102250
03:00−21ссз239862 0.0 102320
06:00−22сз339832 0.0 102421
09:00−21ссз249564 0.0 1025134
12:00−18ссв238675 0.0 1026304
15:00−17ссв238357 0.0 1026313
18:00−21ссв23943 0.0 102620
21:00−23всв23931 0.0 102820